Retour au catalogue

STARLINK-33800

ActifCommunicationsVLEO
NORAD 63576·PAYLOAD·🇺🇸 United States

Lancé Apr 14, 2025 depuis Cape Canaveral Space Force Station

Loading…

Prochains Passages (prochaines 24 heures)

TLE

FraisSource: CelesTrak SupGP

Époque: Sep 15, 2026, 03:14 UTC

1 63576C 25076H   26258.13520833  .00043889  00000+0  15895-2 0  2584
2 63576  43.0027 331.6195 0001312 260.1703 178.5428 15.27559668    19

Suivez STARLINK-33800 en temps réel avec AllMySat

Download on the App Store